Date,TemperatureHighF,TemperatureAvgF,TemperatureLowF,DewpointHighF,DewpointAvgF,DewpointLowF,HumidityHigh,HumidityAvg,HumidityLow,PressureMaxIn,PressureMinIn,WindSpeedMaxMPH,WindSpeedAvgMPH,GustSpeedMaxMPH,PrecipitationSumIn
2013-9-1,80.7,64.4,47.1,41.9,38.5,32.5,69,41,20,29.93,29.81,15,4,19,0.19
2013-9-2,77.7,67.4,61.9,57.3,42.5,31.1,84,45,23,29.83,29.68,15,5,25,0.02
2013-9-3,81.3,69.8,58.8,52.6,46.6,41.6,68,46,27,29.85,29.73,14,4,16,0.00
2013-9-4,79.6,68.5,60.1,57.3,51.2,46.0,75,55,36,29.88,29.82,12,4,19,0.00
2013-9-5,83.7,71.3,61.8,56.2,50.7,45.9,72,49,30,29.89,29.71,16,6,18,0.00
2013-9-6,83.2,69.4,57.6,54.3,48.1,44.4,67,48,27,29.81,29.73,20,6,26,0.01
2013-9-7,75.9,66.8,57.4,57.3,48.6,42.3,89,54,36,29.83,29.74,16,3,24,0.00
2013-9-8,71.5,59.9,53.8,60.3,50.0,42.6,88,71,50,30.03,29.65,17,3,21,0.08
2013-9-9,66.7,57.1,47.3,49.3,43.6,38.8,92,64,36,29.93,29.73,17,3,17,0.00
2013-9-10,71.2,59.8,49.0,43.9,41.0,37.3,65,51,35,30.00,29.92,14,5,16,0.00
2013-9-11,71.8,62.3,53.6,45.1,41.4,37.9,65,47,31,30.11,29.98,13,5,18,0.00
2013-9-12,68.2,59.4,47.9,49.7,44.6,40.7,77,59,39,30.11,29.90,19,5,25,0.00
2013-9-13,69.2,57.6,50.0,51.4,47.3,41.8,90,69,37,29.90,29.69,7,2,11,0.09
2013-9-14,59.4,54.8,52.0,52.8,50.3,45.6,95,85,61,29.99,29.72,13,4,20,1.37
2013-9-15,62.9,54.7,49.4,56.5,51.1,47.9,98,89,65,30.05,29.88,17,4,24,0.39
2013-9-16,72.8,59.8,49.0,56.6,50.3,41.1,98,73,44,29.88,29.66,13,3,17,0.00
2013-9-17,70.6,60.1,50.7,51.1,43.8,27.4,92,58,20,29.69,29.43,27,6,40,0.06
2013-9-18,62.2,51.4,40.1,45.7,37.3,24.4,92,62,27,29.86,29.47,20,5,27,0.00
2013-9-19,54.2,45.2,36.7,39.1,33.8,29.9,77,65,46,30.10,29.86,12,3,15,0.00
2013-9-20,64.2,51.2,40.3,38.0,29.8,19.2,68,45,24,30.09,29.75,15,6,21,0.00
2013-9-21,76.7,62.2,50.8,38.3,29.4,18.4,43,30,16,29.75,29.42,24,5,25,0.00
2013-9-22,65.3,58.1,51.2,43.0,36.1,29.1,62,45,28,29.47,29.32,17,4,22,0.00
2013-9-23,61.2,52.3,41.8,39.8,32.9,21.0,84,51,22,29.82,29.47,11,2,17,0.00
2013-9-24,63.4,54.1,40.3,37.5,30.8,25.9,65,42,28,29.83,29.50,38,9,47,0.00
2013-9-25,57.0,41.8,37.7,38.9,35.7,25.3,97,80,30,29.63,29.48,14,2,21,0.09
2013-9-26,37.6,34.0,29.6,35.6,32.5,28.0,98,95,85,30.03,29.62,14,4,19,0.10
2013-9-27,41.8,33.6,29.6,34.6,30.8,26.9,98,90,73,30.03,29.96,6,2,10,0.20
2013-9-28,55.2,44.7,28.6,39.0,31.2,26.7,96,62,37,29.99,29.81,21,4,30,0.01
2013-9-29,59.5,54.8,46.1,35.1,31.2,28.1,65,41,34,29.81,29.48,29,9,37,0.00
2013-9-30,57.1,47.7,38.6,42.9,37.8,26.4,89,70,43,29.77,29.37,24,6,33,0.05